K0OHU-1 Weather Reports


Display with metric or nautical units.
time (UTC)temp
F
wind
direction
speed
MPH
gust
MPH
rain 1hr
in
rain 24hr
in
rain mn
in
humidity
%
barometer
mb
20140801221742 84 180 0.0 5.0 0.00 0.00 0.00 28 1022.9
20140801220252 84 79 0.0 2.0 0.00 0.00 0.00 29 1022.8
20140801214738 83 135 0.0 2.0 0.00 0.00 0.00 30 1022.9
20140801213253 81 138 0.0 3.0 0.00 0.00 0.00 30 1023.3
20140801211748 80 144 0.0 2.0 0.00 0.00 0.00 32 1023.5
20140801210247 80 157 0.0 1.0 0.00 0.00 0.00 35 1023.6
20140801204753 80 157 0.0 2.0 0.00 0.00 0.00 37 1023.4
20140801203245 82 72 0.0 2.0 0.00 0.00 0.00 37 1023.1
20140801201753 79 84 0.0 1.0 0.00 0.00 0.00 39 1023.7
20140801200242 78 86 0.0 1.0 0.00 0.00 0.00 42 1023.1
20140801194743 79 93 0.0 2.0 0.00 0.00 0.00 41 1023.9
20140801193241 79 94 0.0 2.0 0.00 0.00 0.00 42 1024.0
20140801191747 78 98 0.0 0.0 0.00 0.00 0.00 45 1024.0
20140801190240 78 98 0.0 0.0 0.00 0.00 0.00 45 1024.0
20140801184746 77 98 0.0 0.0 0.00 0.00 0.00 43 1024.1
20140801183254 78 98 0.0 1.0 0.00 0.00 0.00 45 1024.0
20140801181744 78 98 0.0 0.0 0.00 0.00 0.00 45 1023.9
20140801180253 78 99 0.0 2.0 0.00 0.00 0.00 43 1024.0
20140801174738 78 128 0.0 0.0 0.00 0.00 0.00 43 1024.5
20140801173252 79 128 0.0 0.0 0.00 0.00 0.00 43 1024.4
20140801171758 78 128 0.0 0.0 0.00 0.00 0.00 47 1024.3
20140801170401 76 128 0.0 1.0 0.00 0.00 0.00 48 1024.1
20140801164758 76 128 0.0 1.0 0.00 0.00 0.00 50 1024.0
20140801163247 75 128 0.0 0.0 0.00 0.00 0.00 53 1024.0
20140801161753 75 128 0.0 0.0 0.00 0.00 0.00 53 1024.5
20140801160248 74 128 0.0 1.0 0.00 0.00 0.00 53 1024.6
20140801154753 72 128 0.0 0.0 0.00 0.00 0.00 56 1024.4
20140801153243 71 128 0.0 0.0 0.00 0.00 0.00 57 1024.7
20140801151744 70 128 0.0 0.0 0.00 0.00 0.00 59 1024.9
20140801150244 66 128 0.0 0.0 0.00 0.00 0.00 70 1024.6
20140801144800 64 128 0.0 0.0 0.00 0.00 0.00 74 1024.6
20140801143258 63 128 0.0 0.0 0.00 0.00 0.00 77 1024.4
20140801141750 60 128 0.0 0.0 0.00 0.00 0.00 81 1024.6
20140801140258 59 128 0.0 0.0 0.00 0.00 0.00 84 1023.4
20140801134744 58 128 0.0 0.0 0.00 0.00 0.00 87 1024.6
20140801133257 56 128 0.0 0.0 0.00 0.00 0.00 91 1024.7
20140801131753 54 128 0.0 0.0 0.00 0.00 0.00 93 1024.3
20140801130253 53 128 0.0 0.0 0.00 0.00 0.00 93 1023.6
20140801124741 52 128 0.0 0.0 0.00 0.00 0.00 93 1024.2
20140801123253 52 128 0.0 0.0 0.00 0.00 0.00 92 1024.0
20140801121800 52 128 0.0 0.0 0.00 0.00 0.00 92 1023.8
20140801120248 52 128 0.0 0.0 0.00 0.00 0.00 92 1023.7
20140801114759 52 128 0.0 0.0 0.00 0.00 0.00 92 1023.5
20140801113247 52 128 0.0 0.0 0.00 0.00 0.00 92 1023.5
20140801111742 53 128 0.0 0.0 0.00 0.00 0.00 92 1023.8
20140801110246 53 128 0.0 0.0 0.00 0.00 0.00 92 1023.8
20140801104752 53 128 0.0 0.0 0.00 0.00 0.00 92 1023.8
20140801103241 53 128 0.0 0.0 0.00 0.00 0.00 91 1023.8
20140801101749 53 128 0.0 0.0 0.00 0.00 0.00 91 1024.0
20140801100259 53 128 0.0 0.0 0.00 0.00 0.00 91 1024.8
20140801094744 53 128 0.0 0.0 0.00 0.00 0.00 91 1023.9
20140801093259 53 128 0.0 0.0 0.00 0.00 0.00 90 1023.9
20140801091743 53 128 0.0 0.0 0.00 0.00 0.00 90 1024.0
20140801090252 53 128 0.0 0.0 0.00 0.00 0.00 90 1023.9
20140801084740 54 128 0.0 0.0 0.00 0.00 0.00 88 1023.6
20140801083250 54 128 0.0 0.0 0.00 0.00 0.00 88 1023.5
20140801081755 54 128 0.0 0.0 0.00 0.00 0.00 88 1023.7
20140801080248 54 128 0.0 0.0 0.00 0.00 0.00 88 1023.8
20140801074755 55 128 0.0 0.0 0.00 0.00 0.00 87 1024.3
20140801073246 55 128 0.0 0.0 0.00 0.00 0.00 86 1024.3
20140801071758 55 128 0.0 0.0 0.00 0.00 0.00 85 1024.5
20140801070247 56 128 0.0 0.0 0.00 0.00 0.00 85 1024.6
20140801064752 56 128 0.0 0.0 0.00 0.00 0.00 83 1024.4
20140801063245 57 128 0.0 0.0 0.00 0.00 0.00 82 1024.0
20140801061750 57 128 0.0 0.0 0.00 0.00 0.00 81 1024.0
20140801060259 57 128 0.0 0.0 0.00 0.00 0.00 80 1024.1
20140801054759 58 128 0.0 0.0 0.00 0.00 0.05 80 1024.5
20140801053258 58 128 0.0 0.0 0.00 0.00 0.05 79 1024.4
20140801051803 59 128 0.0 0.0 0.00 0.00 0.05 78 1024.3
20140801050253 59 128 0.0 0.0 0.00 0.00 0.05 77 1025.4
20140801044806 60 128 0.0 0.0 0.00 0.00 0.05 76 1024.3
20140801043259 60 128 0.0 0.0 0.00 0.00 0.05 74 1024.3
20140801041806 61 128 0.0 0.0 0.00 0.00 0.05 73 1024.2
20140801040259 62 128 0.0 0.0 0.00 0.00 0.05 72 1025.3
20140801034805 63 128 0.0 0.0 0.00 0.00 0.05 70 1024.1
20140801033258 63 128 0.0 0.0 0.00 0.00 0.05 68 1023.8
20140801031804 64 128 0.0 0.0 0.00 0.00 0.05 65 1023.7
20140801030254 65 128 0.0 0.0 0.00 0.00 0.05 64 1023.9
20140801024804 66 128 0.0 0.0 0.00 0.00 0.05 64 1023.8
20140801023253 68 128 0.0 0.0 0.00 0.00 0.05 59 1023.6
20140801021759 69 128 0.0 0.0 0.00 0.00 0.05 57 1023.4
20140801020253 71 128 0.0 0.0 0.00 0.00 0.05 55 1022.9
20140801014758 72 128 0.0 0.0 0.00 0.00 0.05 52 1023.1
20140801013307 73 128 0.0 0.0 0.00 0.00 0.05 49 1022.7
20140801011757 74 128 0.0 0.0 0.00 0.00 0.05 46 1022.8
20140801010307 76 128 0.0 2.0 0.00 0.00 0.05 43 1023.1
20140801004753 76 120 0.0 1.0 0.00 0.00 0.05 42 1023.0
20140801003308 77 119 0.0 1.0 0.00 0.00 0.05 39 1022.6
20140801001753 79 120 0.0 0.0 0.00 0.00 0.05 38 1022.7
20140801000301 79 120 0.0 0.0 0.00 0.00 0.05 39 1022.9
20140731234810 78 119 0.0 0.0 0.00 0.00 0.05 40 1023.0
20140731233307 78 120 0.0 2.0 0.00 0.00 0.05 41 1022.9
20140731231756 79 121 0.0 2.0 0.00 0.00 0.05 38 1022.8
20140731230310 79 141 0.0 2.0 0.00 0.00 0.05 43 1023.4
20140731224755 78 134 0.0 1.0 0.00 0.00 0.05 41 1023.0
20140731223305 77 135 0.0 2.0 0.00 0.00 0.05 41 1023.4